Weather History for KFST - December, 2013

Change the Weather History Date:

Saturday, December 21, 2013

  Actual Average Record
Temperature  
Mean Temperature 49 °F -  
Max Temperature 57 °F 57 °F 82 °F (2003)
Min Temperature 41 °F 32 °F 23 °F (1998)
Degree Days  
Heating Degree Days 16    
Moisture  
Dew Point 37 °F    
Average Humidity 68    
Maximum Humidity 100    
Minimum Humidity 39    
Precipitation  
Precipitation 0.03 in - - ()
Sea Level Pressure  
Sea Level Pressure 29.64 in    
Wind  
Wind Speed 13 mph (WSW)    
Max Wind Speed 31 mph    
Max Gust Speed 47 mph    
Visibility 10 miles    
Events Rain    
Averages and records for this station are not official NWS values.
T = Trace of Precipitation, MM = Missing Value Source: NWS Daily Summary

Daily Weather History Graph

Daily Weather History Graph

Search for Another Location

Airport or City:

Trip Planner

Search our weather history database for the weather conditions in past years. The results will help you decide how hot, cold, wet, or windy it might be!

Date:

Astronomy

Dec. 21, 2013 Rise Set
Actual Time 7:45 AM CST 5:54 PM CST
Civil Twilight 7:19 AM CST 6:20 PM CST
Nautical Twilight 6:48 AM CST 6:51 PM CST
Astronomical Twilight 6:19 AM CST 7:20 PM CST
Moon 9:57 PM CST (12/21) 10:26 AM CST (12/21)
Length of Visible Light 11h 01m
Length of Day
10h 08m
Waning Gibbous, 84% of the Moon is Illuminated
Dec 21
Waning Gibbous
Dec 25
Last Quarter
Jan 1
New
Jan 7
First Quarter
Jan 15
Full

Hourly Weather History & Observations

Time (CST) Temp. Windchill Dew Point Humidity Pressure Visibility Wind Dir Wind Speed Gust Speed Precip Events Conditions
12:53 AM 48.0 °F - 46.0 °F 93% 29.56 in 10.0 mi SSE 9.2 mph - N/A   Mostly Cloudy
1:53 AM 51.1 °F - 48.0 °F 89% 29.52 in 10.0 mi South 10.4 mph - N/A   Clear
2:53 AM 46.0 °F 41.9 °F 46.0 °F 100% 29.54 in 10.0 mi WSW 8.1 mph - N/A   Clear
3:15 AM 45.0 °F 40.6 °F 45.0 °F 100% 29.65 in 10.0 mi West 8.1 mph - N/A   Mostly Cloudy
3:46 AM 44.1 °F 36.8 °F 43.0 °F 96% 29.68 in 6.0 mi WNW 16.1 mph 26.5 mph 0.02 in Rain Rain
3:53 AM 44.1 °F 36.5 °F 43.0 °F 96% 29.58 in 6.0 mi WNW 17.3 mph 26.5 mph 0.03 in Rain Light Rain
4:53 AM 43.0 °F 37.7 °F 41.0 °F 93% 29.62 in 10.0 mi West 9.2 mph - 0.00 in   Partly Cloudy
5:53 AM 42.1 °F 38.4 °F 41.0 °F 96% 29.62 in 10.0 mi SW 5.8 mph - N/A   Clear
6:53 AM 42.1 °F 35.7 °F 39.0 °F 89% 29.63 in 10.0 mi WSW 11.5 mph - N/A   Clear
7:53 AM 41.0 °F 34.3 °F 37.0 °F 86% 29.64 in 10.0 mi WSW 11.5 mph - N/A   Clear
8:53 AM 43.0 °F 35.1 °F 35.1 °F 74% 29.64 in 10.0 mi SW 17.3 mph 20.7 mph N/A   Clear
9:53 AM 48.0 °F - 34.0 °F 58% 29.61 in 10.0 mi SW 24.2 mph 32.2 mph N/A   Clear
10:53 AM 51.1 °F - 30.9 °F 46% 29.62 in 10.0 mi WSW 25.3 mph 38.0 mph N/A   Partly Cloudy
11:53 AM 54.0 °F - 34.0 °F 47% 29.61 in 10.0 mi WSW 23.0 mph 32.2 mph N/A   Scattered Clouds
12:53 PM 55.0 °F - 33.1 °F 43% 29.59 in 10.0 mi West 21.9 mph 27.6 mph N/A   Partly Cloudy
1:53 PM 55.9 °F - 33.1 °F 42% 29.56 in 10.0 mi West 31.1 mph 47.2 mph N/A   Clear
2:53 PM 57.0 °F - 32.0 °F 39% 29.59 in 10.0 mi West 28.8 mph 41.4 mph N/A   Clear
3:53 PM 54.0 °F - 32.0 °F 43% 29.62 in 10.0 mi West 21.9 mph 34.5 mph N/A   Clear
4:53 PM 54.0 °F - 30.0 °F 40% 29.64 in 10.0 mi West 20.7 mph 31.1 mph N/A   Clear
5:53 PM 52.0 °F - 32.0 °F 47% 29.67 in 10.0 mi WSW 10.4 mph - N/A   Clear
6:53 PM 48.0 °F - 32.0 °F 54% 29.70 in 10.0 mi West 6.9 mph - N/A   Clear
7:53 PM 48.0 °F - 32.0 °F 54% 29.72 in 10.0 mi NW 4.6 mph - N/A   Clear
8:53 PM 46.0 °F 41.9 °F 33.1 °F 61% 29.74 in 10.0 mi West 8.1 mph - N/A   Clear
9:53 PM 45.0 °F 41.8 °F 32.0 °F 60% 29.77 in 10.0 mi WNW 5.8 mph - N/A   Clear
10:53 PM 45.0 °F 41.8 °F 32.0 °F 60% 29.78 in 10.0 mi NNW 5.8 mph - N/A   Clear
11:53 PM 41.0 °F 38.0 °F 33.1 °F 73% 29.80 in 10.0 mi WSW 4.6 mph - N/A   Clear